M I D A S
Marine Information and Data Acquisition System
Tripno 1733 of the Zeeleeuw from 2009-07-09 06:46:27 to 2009-07-09 17:26:28
Back to CruiseResearch ActivitiesStationsMapUnderway DataData graphs

EquipmentUnitsComments
TimeDGPSUTC
LatitudeDGPSDM.mWGS84
LongitudeDGPSDM.mWGS84
SpeedMeteo Stationm/sRelative wind speed
DirectionMeteo StationdegRelative wind direction
TemperatureMeteo Stationdeg CelciusAir temperature
PressureMeteo StationPaAtmospheric pressure
HumidityMeteo Station%Relative humidity
Missing or incorrect values are displayed as -999
Metereological data collected by the RV Zeeleeuw from 2009-07-09 06:41:00 to 2009-07-09 17:34:14
                                                                                    Next 1000 lines
Time Latitude Longitude Speed Direction Temperature Pressure Humidity
2009-07-09 06:41:10 51°13.662 2°55.956 3.1 23 13.6 101420 73
2009-07-09 06:41:15 51°13.662 2°55.954 3.1 21 13.6 101420 73
2009-07-09 06:41:20 51°13.663 2°55.951 3.2 16 13.6 101420 73
2009-07-09 06:41:25 51°13.664 2°55.947 3.5 20 13.5 101420 72
2009-07-09 06:41:30 51°13.665 2°55.944 3.1 20 13.5 101420 72
2009-07-09 06:41:36 51°13.666 2°55.938 3.1 15 13.5 101420 74
2009-07-09 06:41:42 51°13.668 2°55.932 3 36 13.5 101420 74
2009-07-09 06:41:47 51°13.67 2°55.926 3.6 41 13.5 101420 74
2009-07-09 06:41:53 51°13.673 2°55.919 2.4 40 13.5 101420 74
2009-07-09 06:41:58 51°13.674 2°55.912 1.9 35 13.5 101420 72
2009-07-09 06:42:03 51°13.677 2°55.906 2.2 27 13.5 101420 72
2009-07-09 06:42:09 51°13.679 2°55.898 3 29 13.6 101420 73
2009-07-09 06:42:14 51°13.68 2°55.891 3 37 13.6 101420 73
2009-07-09 06:42:18 51°13.682 2°55.885 3.1 39 13.6 101420 73
2009-07-09 06:42:23 51°13.683 2°55.877 2.9 35 13.6 101420 73
2009-07-09 06:42:28 51°13.684 2°55.87 3.1 20 13.6 101420 73
2009-07-09 06:42:34 51°13.686 2°55.861 3 34 13.6 101420 73
2009-07-09 06:42:38 51°13.687 2°55.855 2.9 33 13.6 101420 72
2009-07-09 06:42:43 51°13.688 2°55.848 3.5 31 13.6 101420 72
2009-07-09 06:42:48 51°13.689 2°55.841 3.3 35 13.6 101420 71
2009-07-09 06:42:54 51°13.691 2°55.832 3.4 43 13.6 101420 71
2009-07-09 06:42:58 51°13.692 2°55.826 4.6 37 13.6 101420 74
2009-07-09 06:43:03 51°13.692 2°55.819 4.1 37 13.6 101420 74
2009-07-09 06:43:08 51°13.694 2°55.812 4 39 13.6 101420 73
2009-07-09 06:43:13 51°13.695 2°55.805 3.9 35 13.6 101420 73
2009-07-09 06:43:18 51°13.695 2°55.799 3.3 27 13.6 101420 74
2009-07-09 06:43:23 51°13.696 2°55.792 3.4 32 13.6 101420 74
2009-07-09 06:43:28 51°13.697 2°55.786 3.4 30 13.6 101420 72
2009-07-09 06:43:33 51°13.697 2°55.78 2.5 31 13.6 101420 72
2009-07-09 06:43:38 51°13.698 2°55.775 3.7 31 13.6 101420 74
2009-07-09 06:43:43 51°13.698 2°55.769 3.7 37 13.6 101420 74
2009-07-09 06:43:48 51°13.698 2°55.764 2.7 36 13.6 101420 73
2009-07-09 06:43:53 51°13.699 2°55.76 3.8 31 13.6 101420 73
2009-07-09 06:43:58 51°13.699 2°55.756 4.4 31 13.6 101420 73
2009-07-09 06:44:03 51°13.7 2°55.754 3 36 13.6 101420 73
2009-07-09 06:44:09 51°13.7 2°55.751 3.6 35 13.6 101420 72
2009-07-09 06:44:13 51°13.701 2°55.751 2.5 39 13.6 101420 72
2009-07-09 06:44:18 51°13.701 2°55.75 2.5 40 13.6 101420 72
2009-07-09 06:44:23 51°13.701 2°55.75 2.6 45 13.6 101420 72
2009-07-09 06:44:28 51°13.702 2°55.75 2.6 45 13.6 101420 72
2009-07-09 06:44:33 51°13.703 2°55.75 2 42 13.6 101420 72
2009-07-09 06:44:38 51°13.704 2°55.75 2.6 39 13.6 101420 80
2009-07-09 06:44:43 51°13.704 2°55.75 2.3 40 13.6 101420 80
2009-07-09 06:44:48 51°13.704 2°55.749 2.3 40 13.6 101420 85
2009-07-09 06:44:54 51°13.704 2°55.748 3 30 13.6 101420 85
2009-07-09 06:44:58 51°13.704 2°55.746 3.1 21 13.6 101420 81
2009-07-09 06:45:03 51°13.703 2°55.745 2.5 32 13.6 101420 81
2009-07-09 06:45:08 51°13.702 2°55.743 1.6 25 13.6 101420 85
2009-07-09 06:45:13 51°13.701 2°55.742 2.3 33 13.6 101420 85
2009-07-09 06:45:18 51°13.701 2°55.74 2.6 23 13.7 101420 86
2009-07-09 06:45:22 51°13.7 2°55.739 2.3 32 13.7 101420 86
2009-07-09 06:45:27 51°13.7 2°55.738 2.7 27 13.7 101430 85
2009-07-09 06:45:32 51°13.699 2°55.737 2.4 31 13.7 101430 85
2009-07-09 06:45:38 51°13.699 2°55.737 2.5 21 13.7 101420 86
2009-07-09 06:45:42 51°13.699 2°55.736 2.5 32 13.7 101420 86
2009-07-09 06:45:47 51°13.7 2°55.736 2.2 27 13.8 101420 87
2009-07-09 06:45:52 51°13.701 2°55.736 3.1 35 13.8 101420 87
2009-07-09 06:45:57 51°13.703 2°55.735 3.1 25 13.8 101420 86
2009-07-09 06:46:02 51°13.704 2°55.735 3.9 36 13.8 101420 86
2009-07-09 06:46:06 51°13.706 2°55.734 3.8 25 13.8 101420 85
2009-07-09 06:46:11 51°13.709 2°55.733 3.3 39 13.8 101420 85
2009-07-09 06:46:16 51°13.712 2°55.732 3.2 26 13.8 101430 85
2009-07-09 06:46:21 51°13.715 2°55.73 3.5 262 13.8 101430 85
2009-07-09 06:46:26 51°13.719 2°55.727 2.4 262 13.8 101430 89
2009-07-09 06:46:31 51°13.724 2°55.724 2.3 264 13.8 101430 89
2009-07-09 06:46:35 51°13.728 2°55.721 2.3 263 13.7 101430 89
2009-07-09 06:46:40 51°13.734 2°55.716 2.2 260 13.7 101430 89
2009-07-09 06:46:46 51°13.741 2°55.709 2.2 260 13.7 101430 89
2009-07-09 06:46:50 51°13.747 2°55.704 4.1 258 13.7 101430 89
2009-07-09 06:46:55 51°13.755 2°55.698 3.4 257 13.7 101420 90
2009-07-09 06:47:00 51°13.763 2°55.691 2.3 256 13.7 101420 90
2009-07-09 06:47:05 51°13.772 2°55.684 3 249 13.7 101430 90
2009-07-09 06:47:10 51°13.781 2°55.676 2.6 32 13.7 101430 90
2009-07-09 06:47:15 51°13.79 2°55.669 2.4 20 13.7 101430 88
2009-07-09 06:47:20 51°13.801 2°55.662 1.4 31 13.7 101430 88
2009-07-09 06:47:25 51°13.811 2°55.653 1.5 24 13.7 101430 89
2009-07-09 06:47:30 51°13.821 2°55.646 2.5 37 13.7 101430 89
2009-07-09 06:47:35 51°13.832 2°55.637 2.6 319 13.7 101430 89
2009-07-09 06:47:39 51°13.841 2°55.631 2 241 13.7 101430 89
2009-07-09 06:47:45 51°13.854 2°55.62 1.9 22 13.7 101420 89
2009-07-09 06:47:50 51°13.865 2°55.612 1.5 330 13.7 101420 89
2009-07-09 06:47:55 51°13.876 2°55.603 2.7 329 13.7 101420 87
2009-07-09 06:47:59 51°13.885 2°55.596 3.2 332 13.7 101420 87
2009-07-09 06:48:05 51°13.899 2°55.585 2.5 329 13.7 101420 88
2009-07-09 06:48:10 51°13.91 2°55.576 3.4 317 13.7 101420 88
2009-07-09 06:48:15 51°13.922 2°55.567 4.5 327 13.7 101420 85
2009-07-09 06:48:19 51°13.932 2°55.559 3.7 32 13.7 101420 85
2009-07-09 06:48:25 51°13.946 2°55.548 4.2 27 13.8 101420 86
2009-07-09 06:48:30 51°13.958 2°55.539 2.6 233 13.8 101420 86
2009-07-09 06:48:35 51°13.97 2°55.53 3.6 26 13.8 101420 86
2009-07-09 06:48:40 51°13.983 2°55.52 3.3 235 13.8 101420 86
2009-07-09 06:48:45 51°13.995 2°55.511 3.4 25 13.8 101420 85
2009-07-09 06:48:50 51°14.007 2°55.502 3.5 34 13.8 101420 85
2009-07-09 06:48:55 51°14.019 2°55.493 3.3 23 13.8 101420 88
2009-07-09 06:48:59 51°14.029 2°55.485 3.3 322 13.8 101420 88
2009-07-09 06:49:05 51°14.044 2°55.474 2.2 322 13.8 101420 87
2009-07-09 06:49:10 51°14.056 2°55.465 3.2 39 13.8 101420 87
2009-07-09 06:49:14 51°14.066 2°55.458 2.9 319 13.8 101420 87
2009-07-09 06:49:20 51°14.081 2°55.447 3 317 13.8 101420 87
2009-07-09 06:49:25 51°14.093 2°55.437 2.8 29 13.8 101420 89
2009-07-09 06:49:30 51°14.105 2°55.428 3 32 13.8 101420 89
2009-07-09 06:49:35 51°14.116 2°55.418 3.2 318 13.8 101420 88
2009-07-09 06:49:39 51°14.126 2°55.41 3.9 317 13.8 101420 88
2009-07-09 06:49:45 51°14.14 2°55.397 4.1 318 13.8 101420 87
2009-07-09 06:49:50 51°14.151 2°55.387 3.7 316 13.8 101420 87
2009-07-09 06:49:55 51°14.163 2°55.376 3.1 26 13.8 101420 89
2009-07-09 06:49:59 51°14.172 2°55.367 3.2 31 13.8 101420 89
2009-07-09 06:50:05 51°14.185 2°55.352 3.4 21 13.8 101420 89
2009-07-09 06:50:10 51°14.196 2°55.34 3.8 317 13.8 101420 89
2009-07-09 06:50:14 51°14.205 2°55.329 4 319 13.8 101420 89
2009-07-09 06:50:19 51°14.216 2°55.317 4.4 325 13.8 101420 89
2009-07-09 06:50:25 51°14.228 2°55.301 4.2 325 13.8 101420 88
2009-07-09 06:50:30 51°14.239 2°55.287 3.7 319 13.8 101420 88
2009-07-09 06:50:35 51°14.249 2°55.272 3.8 21 13.8 101420 89
2009-07-09 06:50:40 51°14.259 2°55.258 6.2 32 13.8 101420 89
2009-07-09 06:50:45 51°14.268 2°55.242 5.6 27 13.9 101410 89
2009-07-09 06:50:50 51°14.277 2°55.226 6 33 13.9 101410 89
2009-07-09 06:50:55 51°14.286 2°55.209 6.1 21 13.9 101410 88
2009-07-09 06:50:59 51°14.293 2°55.196 5.9 304 13.9 101410 88
2009-07-09 06:51:05 51°14.304 2°55.175 5.9 28 13.9 101420 89
2009-07-09 06:51:10 51°14.312 2°55.158 6 238 13.9 101420 89
2009-07-09 06:51:14 51°14.319 2°55.144 4.5 28 13.9 101410 90
2009-07-09 06:51:20 51°14.329 2°55.122 5.8 311 13.9 101410 90
2009-07-09 06:51:25 51°14.338 2°55.105 5.1 21 13.9 101410 92
2009-07-09 06:51:30 51°14.347 2°55.087 4.3 316 13.9 101410 92
2009-07-09 06:51:34 51°14.354 2°55.072 4.4 316 13.9 101410 91
2009-07-09 06:51:40 51°14.364 2°55.05 8.8 308 13.9 101410 91
2009-07-09 06:51:44 51°14.371 2°55.034 7 24 13.9 101410 93
2009-07-09 06:51:50 51°14.38 2°55.011 5.9 240 13.9 101410 93
2009-07-09 06:51:55 51°14.388 2°54.991 5.8 21 13.9 101420 91
2009-07-09 06:52:00 51°14.397 2°54.971 8.3 304 13.9 101420 91
2009-07-09 06:52:05 51°14.405 2°54.951 7.4 21 13.9 101410 91
2009-07-09 06:52:10 51°14.413 2°54.931 7.7 307 13.9 101410 91
2009-07-09 06:52:15 51°14.421 2°54.91 7 26 13.9 101420 91
2009-07-09 06:52:20 51°14.43 2°54.889 8.3 238 13.9 101420 91
2009-07-09 06:52:25 51°14.438 2°54.867 7.7 24 13.9 101410 90
2009-07-09 06:52:30 51°14.446 2°54.846 9 308 13.9 101410 90
2009-07-09 06:52:35 51°14.455 2°54.825 9 23 13.9 101410 93
2009-07-09 06:52:40 51°14.463 2°54.803 7.5 239 13.9 101410 93
2009-07-09 06:52:45 51°14.471 2°54.779 7.9 25 13.9 101420 91
2009-07-09 06:52:50 51°14.479 2°54.757 10.1 239 13.9 101420 91
2009-07-09 06:52:54 51°14.485 2°54.739 8.6 23 13.9 101410 90
2009-07-09 06:53:00 51°14.495 2°54.711 8.7 238 13.9 101410 90
2009-07-09 06:53:05 51°14.503 2°54.688 7.9 25 13.9 101410 91
2009-07-09 06:53:10 51°14.511 2°54.665 7.5 304 13.9 101410 91
2009-07-09 06:53:14 51°14.518 2°54.647 8.6 24 13.9 101400 93
2009-07-09 06:53:19 51°14.526 2°54.624 7.1 308 13.9 101400 93
2009-07-09 06:53:25 51°14.535 2°54.596 6.9 21 13.9 101410 92
2009-07-09 06:53:30 51°14.542 2°54.571 9.1 235 13.9 101410 92
2009-07-09 06:53:34 51°14.548 2°54.552 8.7 24 13.9 101400 92
2009-07-09 06:53:40 51°14.557 2°54.522 8.2 306 13.9 101400 92
2009-07-09 06:53:45 51°14.564 2°54.498 7.7 21 13.9 101410 92
2009-07-09 06:53:50 51°14.571 2°54.473 10.4 236 13.9 101410 92
2009-07-09 06:53:54 51°14.576 2°54.453 8.7 26 14 101400 93
2009-07-09 06:53:59 51°14.583 2°54.428 10.1 239 14 101400 93
2009-07-09 06:54:04 51°14.589 2°54.403 8.9 29 14 101400 92
2009-07-09 06:54:10 51°14.597 2°54.373 9.4 236 14 101400 92
2009-07-09 06:54:14 51°14.602 2°54.352 9.1 21 14 101400 92
2009-07-09 06:54:19 51°14.608 2°54.327 11.7 239 14 101400 92
2009-07-09 06:54:24 51°14.615 2°54.302 9 21 14 101400 93
2009-07-09 06:54:30 51°14.623 2°54.272 9.4 237 14 101400 93
2009-07-09 06:54:34 51°14.629 2°54.253 10.1 28 14 101400 89
2009-07-09 06:54:39 51°14.636 2°54.228 8.5 235 14 101400 89
2009-07-09 06:54:44 51°14.645 2°54.205 10.2 23 14 101400 91
2009-07-09 06:54:50 51°14.654 2°54.177 9.1 240 14 101400 91
2009-07-09 06:54:54 51°14.662 2°54.161 8.7 26 14.1 101410 91
2009-07-09 06:55:00 51°14.674 2°54.135 6.8 243 14.1 101410 91
2009-07-09 06:55:04 51°14.682 2°54.119 7.9 26 14 101400 91
2009-07-09 06:55:10 51°14.696 2°54.096 6.2 246 14 101400 91
2009-07-09 06:55:14 51°14.705 2°54.083 6.9 24 14.1 101400 92
2009-07-09 06:55:19 51°14.717 2°54.068 7.2 251 14.1 101400 92
2009-07-09 06:55:25 51°14.733 2°54.053 6.4 244 14 101400 92
2009-07-09 06:55:30 51°14.746 2°54.04 7.2 247 14 101400 92
2009-07-09 06:55:34 51°14.757 2°54.031 5.2 20 14.1 101410 92
2009-07-09 06:55:39 51°14.77 2°54.022 5.1 308 14.1 101410 92
2009-07-09 06:55:44 51°14.785 2°54.014 6.3 252 14.1 101400 90
2009-07-09 06:55:50 51°14.802 2°54.005 4.3 253 14.1 101400 90
2009-07-09 06:55:54 51°14.813 2°54.002 3.5 256 14.1 101410 91
2009-07-09 06:55:59 51°14.827 2°53.999 3.3 36 14.1 101410 91
2009-07-09 06:56:05 51°14.844 2°53.999 2.6 268 14.1 101420 92
2009-07-09 06:56:10 51°14.858 2°54.002 2.1 269 14.1 101420 92
2009-07-09 06:56:14 51°14.869 2°54.002 2.5 22 14.1 101410 92
2009-07-09 06:56:18 51°14.88 2°54.006 1.9 39 14.1 101410 92
2009-07-09 06:56:24 51°14.896 2°54.013 1.5 20 14.1 101410 92
2009-07-09 06:56:30 51°14.912 2°54.021 0.8 32 14.1 101410 92
2009-07-09 06:56:34 51°14.922 2°54.028 0.9 27 14.2 101420 91
2009-07-09 06:56:39 51°14.934 2°54.039 2.8 26 14.2 101420 91
2009-07-09 06:56:44 51°14.945 2°54.051 3.3 35 14.1 101410 88
2009-07-09 06:56:50 51°14.958 2°54.066 2.5 28 14.1 101410 88
2009-07-09 06:56:54 51°14.967 2°54.076 1.7 23 14.2 101410 91
2009-07-09 06:56:59 51°14.977 2°54.091 2.8 24 14.2 101410 91
2009-07-09 06:57:04 51°14.987 2°54.105 3.4 27 14.2 101420 92
2009-07-09 06:57:10 51°14.998 2°54.125 3.2 25 14.2 101420 92
2009-07-09 06:57:14 51°15.005 2°54.137 3 25 14.2 101410 90
2009-07-09 06:57:20 51°15.015 2°54.157 3.1 26 14.2 101410 90
2009-07-09 06:57:24 51°15.022 2°54.171 2.9 23 14.2 101400 90
2009-07-09 06:57:30 51°15.033 2°54.191 3 21 14.2 101400 90
2009-07-09 06:57:34 51°15.039 2°54.205 3.1 23 14.2 101410 92
2009-07-09 06:57:40 51°15.049 2°54.226 3.1 18 14.2 101410 92
2009-07-09 06:57:44 51°15.056 2°54.239 4.8 25 14.2 101410 92
2009-07-09 06:57:50 51°15.066 2°54.259 3.2 25 14.2 101410 92
2009-07-09 06:57:54 51°15.074 2°54.272 3.8 23 14.2 101410 92
2009-07-09 06:57:59 51°15.082 2°54.289 3 26 14.2 101410 92
2009-07-09 06:58:05 51°15.093 2°54.309 3.3 26 14.2 101400 91
2009-07-09 06:58:10 51°15.103 2°54.326 3.1 25 14.2 101400 91
2009-07-09 06:58:14 51°15.111 2°54.339 2.6 27 14.2 101400 92
2009-07-09 06:58:19 51°15.121 2°54.356 2.5 28 14.2 101400 92
2009-07-09 06:58:24 51°15.131 2°54.372 2.5 24 14.2 101410 91
2009-07-09 06:58:30 51°15.143 2°54.392 3.2 25 14.2 101410 91
2009-07-09 06:58:34 51°15.15 2°54.404 2.6 24 14.2 101400 92
2009-07-09 06:58:39 51°15.16 2°54.42 2.6 21 14.2 101400 92
2009-07-09 06:58:44 51°15.169 2°54.436 2.1 21 14.2 101410 92
2009-07-09 06:58:50 51°15.182 2°54.453 2.9 18 14.2 101410 92
2009-07-09 06:58:54 51°15.19 2°54.465 2.4 18 14.2 101410 91
2009-07-09 06:58:58 51°15.198 2°54.478 2.7 17 14.2 101410 91
2009-07-09 06:59:04 51°15.211 2°54.494 4 23 14.2 101410 92
2009-07-09 06:59:09 51°15.222 2°54.508 3 29 14.2 101410 92
2009-07-09 06:59:14 51°15.233 2°54.521 2.4 28 14.3 101410 92
2009-07-09 06:59:20 51°15.245 2°54.539 2.9 32 14.3 101410 92
2009-07-09 06:59:24 51°15.255 2°54.547 2.6 33 14.3 101400 93
2009-07-09 06:59:30 51°15.268 2°54.564 3.4 30 14.3 101400 93
2009-07-09 06:59:35 51°15.279 2°54.576 2.4 33 14.3 101410 92
2009-07-09 06:59:40 51°15.29 2°54.59 2.3 21 14.3 101410 92
2009-07-09 06:59:45 51°15.302 2°54.602 2.3 24 14.3 101400 92
2009-07-09 06:59:50 51°15.313 2°54.616 2.4 32 14.3 101400 92
2009-07-09 06:59:54 51°15.323 2°54.624 2.4 35 14.3 101400 92
2009-07-09 06:59:59 51°15.334 2°54.638 2.3 39 14.3 101400 92
2009-07-09 07:00:04 51°15.346 2°54.649 2.1 39 14.3 101400 93
2009-07-09 07:00:10 51°15.36 2°54.664 1.8 31 14.3 101400 93
2009-07-09 07:00:14 51°15.369 2°54.674 2.3 25 14.3 101410 93
2009-07-09 07:00:19 51°15.381 2°54.686 2.2 24 14.3 101410 93
2009-07-09 07:00:24 51°15.392 2°54.699 2.2 27 14.3 101410 93
2009-07-09 07:00:30 51°15.406 2°54.714 2.8 32 14.3 101410 93
2009-07-09 07:00:34 51°15.416 2°54.723 2.1 40 14.3 101400 92
2009-07-09 07:00:39 51°15.427 2°54.735 2 41 14.3 101400 92
2009-07-09 07:00:44 51°15.439 2°54.747 1.7 36 14.3 101410 93
2009-07-09 07:00:50 51°15.453 2°54.762 2.4 42 14.3 101410 93
2009-07-09 07:00:54 51°15.462 2°54.771 2.5 41 14.3 101400 93
2009-07-09 07:00:59 51°15.474 2°54.784 2.4 43 14.3 101400 93
2009-07-09 07:01:04 51°15.486 2°54.796 2.6 41 14.3 101400 92
2009-07-09 07:01:10 51°15.5 2°54.81 2.5 40 14.3 101400 92
2009-07-09 07:01:14 51°15.509 2°54.82 2.2 21 14.3 101400 92
2009-07-09 07:01:19 51°15.521 2°54.833 2.1 39 14.3 101400 92
2009-07-09 07:01:24 51°15.533 2°54.845 2 44 14.2 101400 92
2009-07-09 07:01:30 51°15.547 2°54.859 1.4 43 14.2 101400 92
2009-07-09 07:01:35 51°15.558 2°54.872 2 42 14.2 101400 93
2009-07-09 07:01:39 51°15.568 2°54.882 1.9 36 14.2 101400 93
2009-07-09 07:01:44 51°15.579 2°54.895 1.5 37 14.2 101400 93
2009-07-09 07:01:50 51°15.593 2°54.909 2.3 30 14.2 101400 93
2009-07-09 07:01:54 51°15.602 2°54.92 2.5 27 14.3 101400 92
2009-07-09 07:01:59 51°15.614 2°54.931 2.4 28 14.3 101400 92
2009-07-09 07:02:04 51°15.625 2°54.944 2.7 28 14.3 101400 92
2009-07-09 07:02:10 51°15.639 2°54.958 3.1 25 14.3 101400 92
2009-07-09 07:02:14 51°15.648 2°54.97 2.6 29 14.3 101400 93
2009-07-09 07:02:19 51°15.66 2°54.981 2.3 30 14.3 101400 93
2009-07-09 07:02:24 51°15.671 2°54.995 2.2 26 14.3 101400 93
2009-07-09 07:02:30 51°15.686 2°55.008 2.4 37 14.3 101400 93
2009-07-09 07:02:34 51°15.694 2°55.019 2.4 35 14.3 101400 93
2009-07-09 07:02:39 51°15.706 2°55.031 1.8 29 14.3 101400 93
2009-07-09 07:02:45 51°15.72 2°55.046 2 29 14.4 101400 93
2009-07-09 07:02:50 51°15.73 2°55.061 2.5 28 14.4 101400 93
2009-07-09 07:02:54 51°15.739 2°55.071 2.3 19 14.4 101390 93
2009-07-09 07:02:59 51°15.748 2°55.088 3.9 19 14.4 101390 93
2009-07-09 07:03:04 51°15.759 2°55.101 3.4 26 14.4 101400 93
2009-07-09 07:03:10 51°15.769 2°55.122 4.2 24 14.4 101400 93
2009-07-09 07:03:14 51°15.776 2°55.135 4.6 23 14.4 101390 94
2009-07-09 07:03:19 51°15.784 2°55.153 5.1 22 14.4 101390 94
2009-07-09 07:03:25 51°15.794 2°55.174 4.4 19 14.5 101390 95
2009-07-09 07:03:30 51°15.799 2°55.194 6.1 22 14.5 101390 95
2009-07-09 07:03:34 51°15.805 2°55.209 4.7 22 14.5 101380 93
2009-07-09 07:03:39 51°15.811 2°55.228 6 16 14.5 101380 93
2009-07-09 07:03:45 51°15.817 2°55.251 5.3 15 14.4 101390 92
2009-07-09 07:03:50 51°15.823 2°55.271 6.3 16 14.4 101390 92
2009-07-09 07:03:55 51°15.828 2°55.291 6 15 14.4 101390 93
2009-07-09 07:03:59 51°15.832 2°55.307 4.7 14 14.4 101390 93
2009-07-09 07:04:05 51°15.837 2°55.331 5.5 13 14.4 101390 93
2009-07-09 07:04:10 51°15.843 2°55.351 5.5 11 14.4 101390 93
2009-07-09 07:04:14 51°15.846 2°55.368 5.2 17 14.5 101390 92
2009-07-09 07:04:19 51°15.85 2°55.388 5.6 12 14.5 101390 92
2009-07-09 07:04:24 51°15.855 2°55.408 6 14 14.5 101390 92
2009-07-09 07:04:30 51°15.86 2°55.433 6.3 10 14.5 101390 92
2009-07-09 07:04:34 51°15.864 2°55.449 6.2 10 14.5 101390 93
2009-07-09 07:04:39 51°15.868 2°55.47 6.1 12 14.5 101390 93
2009-07-09 07:04:44 51°15.873 2°55.489 6 14 14.5 101390 93
2009-07-09 07:04:50 51°15.878 2°55.514 5.4 18 14.5 101390 93
2009-07-09 07:04:54 51°15.883 2°55.53 5.5 16 14.5 101380 92
2009-07-09 07:04:59 51°15.888 2°55.55 4.5 18 14.5 101380 92
2009-07-09 07:05:05 51°15.894 2°55.574 5.7 11 14.6 101380 94
2009-07-09 07:05:10 51°15.899 2°55.595 4.6 13 14.6 101380 94
2009-07-09 07:05:14 51°15.903 2°55.611 4.9 15 14.5 101380 93
2009-07-09 07:05:19 51°15.909 2°55.63 6.6 13 14.5 101380 93
2009-07-09 07:05:24 51°15.913 2°55.651 6.9 15 14.5 101380 92
2009-07-09 07:05:30 51°15.921 2°55.674 6.7 16 14.5 101380 92
2009-07-09 07:05:34 51°15.924 2°55.691 5.8 16 14.5 101380 92
2009-07-09 07:05:38 51°15.929 2°55.706 5.3 14 14.5 101380 92
2009-07-09 07:05:44 51°15.936 2°55.73 5.5 15 14.5 101380 91
2009-07-09 07:05:50 51°15.942 2°55.754 5.1 17 14.5 101380 91
2009-07-09 07:05:55 51°15.947 2°55.774 6.2 13 14.5 101380 91
2009-07-09 07:05:59 51°15.953 2°55.789 5.7 15 14.5 101380 91
2009-07-09 07:06:04 51°15.958 2°55.809 5.7 15 14.5 101390 87
2009-07-09 07:06:10 51°15.966 2°55.832 5.5 12 14.5 101390 87
2009-07-09 07:06:14 51°15.97 2°55.848 5.3 11 14.5 101380 88
2009-07-09 07:06:19 51°15.977 2°55.866 6.2 11 14.5 101380 88
2009-07-09 07:06:24 51°15.983 2°55.886 6.2 14 14.5 101390 91
2009-07-09 07:06:30 51°15.991 2°55.908 5.6 13 14.5 101390 91
2009-07-09 07:06:34 51°15.995 2°55.924 5.3 15 14.5 101390 93
2009-07-09 07:06:40 51°16.002 2°55.947 5.3 11 14.5 101390 93
2009-07-09 07:06:44 51°16.008 2°55.962 5.7 8 14.5 101380 90
2009-07-09 07:06:50 51°16.014 2°55.986 5.1 14 14.5 101380 90
2009-07-09 07:06:54 51°16.02 2°56.001 6 18 14.5 101380 91
2009-07-09 07:07:00 51°16.027 2°56.024 5.8 16 14.5 101380 91
2009-07-09 07:07:05 51°16.032 2°56.044 5.3 12 14.5 101380 91
2009-07-09 07:07:10 51°16.039 2°56.063 6.2 13 14.5 101380 91
2009-07-09 07:07:14 51°16.043 2°56.078 5.3 9 14.5 101380 92
2009-07-09 07:07:19 51°16.05 2°56.097 6.1 12 14.5 101380 92
2009-07-09 07:07:25 51°16.056 2°56.121 5.3 14 14.5 101390 90
2009-07-09 07:07:30 51°16.064 2°56.139 6.3 14 14.5 101390 90
2009-07-09 07:07:34 51°16.067 2°56.155 4.7 15 14.5 101390 91
2009-07-09 07:07:39 51°16.074 2°56.174 5.3 13 14.5 101390 91
2009-07-09 07:07:44 51°16.08 2°56.193 5.4 13 14.5 101390 88
2009-07-09 07:07:50 51°16.087 2°56.217 4.5 14 14.5 101390 88
2009-07-09 07:07:54 51°16.093 2°56.231 4 17 14.5 101390 90
2009-07-09 07:07:59 51°16.098 2°56.251 4.2 18 14.5 101390 90
2009-07-09 07:08:04 51°16.105 2°56.269 4.3 19 14.5 101390 90
2009-07-09 07:08:10 51°16.111 2°56.293 4.2 15 14.5 101390 90
2009-07-09 07:08:14 51°16.116 2°56.307 3.4 15 14.5 101390 92
2009-07-09 07:08:20 51°16.124 2°56.331 5.5 17 14.5 101390 92
2009-07-09 07:08:24 51°16.129 2°56.346 5.3 15 14.4 101390 89
2009-07-09 07:08:30 51°16.136 2°56.369 4.9 19 14.4 101390 89
2009-07-09 07:08:34 51°16.141 2°56.384 5.3 16 14.5 101390 89
2009-07-09 07:08:39 51°16.148 2°56.403 5.4 16 14.5 101390 89
2009-07-09 07:08:45 51°16.155 2°56.426 5.1 18 14.5 101380 88
2009-07-09 07:08:50 51°16.161 2°56.446 5.2 15 14.5 101380 88
2009-07-09 07:08:54 51°16.167 2°56.46 5.8 17 14.5 101390 87
2009-07-09 07:09:00 51°16.173 2°56.484 4.3 18 14.5 101390 87
2009-07-09 07:09:05 51°16.18 2°56.503 5.5 16 14.5 101380 86
2009-07-09 07:09:10 51°16.186 2°56.521 5.1 19 14.5 101380 86
2009-07-09 07:09:14 51°16.192 2°56.536 5.4 19 14.5 101370 81
2009-07-09 07:09:19 51°16.198 2°56.556 4.6 14 14.5 101370 81
2009-07-09 07:09:24 51°16.205 2°56.574 5.3 18 14.5 101380 90
2009-07-09 07:09:30 51°16.212 2°56.597 4.5 14 14.5 101380 90
2009-07-09 07:09:34 51°16.217 2°56.613 5.9 15 14.5 101380 91
2009-07-09 07:09:39 51°16.224 2°56.631 4.4 20 14.5 101380 91
2009-07-09 07:09:44 51°16.23 2°56.651 5.5 17 14.5 101380 91
2009-07-09 07:09:50 51°16.238 2°56.674 5.3 20 14.5 101380 91
2009-07-09 07:09:54 51°16.242 2°56.689 5.7 21 14.4 101380 93
2009-07-09 07:09:59 51°16.249 2°56.708 4.3 19 14.4 101380 93
2009-07-09 07:10:04 51°16.255 2°56.728 4.8 19 14.4 101380 90
2009-07-09 07:10:10 51°16.264 2°56.75 4.4 20 14.4 101380 90
2009-07-09 07:10:14 51°16.268 2°56.766 5 17 14.5 101390 87
2009-07-09 07:10:19 51°16.275 2°56.784 5.8 20 14.5 101390 87
2009-07-09 07:10:24 51°16.281 2°56.804 5.2 19 14.5 101390 87
2009-07-09 07:10:30 51°16.288 2°56.827 5.3 19 14.5 101390 87
2009-07-09 07:10:34 51°16.293 2°56.843 5 15 14.6 101380 90
2009-07-09 07:10:39 51°16.3 2°56.861 5.9 17 14.6 101380 90
2009-07-09 07:10:44 51°16.305 2°56.881 5.4 16 14.6 101390 91
2009-07-09 07:10:50 51°16.313 2°56.904 5.4 16 14.6 101390 91
2009-07-09 07:10:54 51°16.318 2°56.919 4.8 19 14.6 101390 91
2009-07-09 07:11:00 51°16.326 2°56.942 4.5 16 14.6 101390 91
2009-07-09 07:11:04 51°16.332 2°56.957 5 16 14.6 101390 92
2009-07-09 07:11:10 51°16.34 2°56.979 4.9 20 14.6 101390 92
2009-07-09 07:11:14 51°16.345 2°56.995 4.6 20 14.6 101400 93
2009-07-09 07:11:19 51°16.353 2°57.013 5.3 20 14.6 101400 93
2009-07-09 07:11:25 51°16.361 2°57.035 4.7 22 14.6 101380 93
2009-07-09 07:11:30 51°16.368 2°57.054 4.9 19 14.6 101380 93
2009-07-09 07:11:34 51°16.373 2°57.069 4.6 26 14.6 101390 92
2009-07-09 07:11:39 51°16.381 2°57.087 5.1 19 14.6 101390 92
2009-07-09 07:11:44 51°16.389 2°57.106 4.1 21 14.6 101390 91
2009-07-09 07:11:50 51°16.397 2°57.129 3.6 18 14.6 101390 91
2009-07-09 07:11:54 51°16.404 2°57.142 4.6 24 14.6 101380 92
2009-07-09 07:11:59 51°16.41 2°57.162 4.5 16 14.6 101380 92
2009-07-09 07:12:05 51°16.42 2°57.183 4.8 18 14.6 101390 92
2009-07-09 07:12:10 51°16.427 2°57.201 3.8 15 14.6 101390 92
2009-07-09 07:12:14 51°16.433 2°57.216 5.6 9 14.6 101390 92
2009-07-09 07:12:18 51°16.439 2°57.23 4 15 14.6 101390 92
2009-07-09 07:12:24 51°16.448 2°57.252 4.3 16 14.6 101390 94
2009-07-09 07:12:30 51°16.457 2°57.273 5 18 14.6 101390 94
2009-07-09 07:12:35 51°16.465 2°57.291 4.3 18 14.6 101380 93
2009-07-09 07:12:39 51°16.471 2°57.305 5 20 14.6 101380 93
2009-07-09 07:12:44 51°16.479 2°57.324 4.8 18 14.7 101400 94
2009-07-09 07:12:50 51°16.488 2°57.345 4.2 20 14.7 101400 94
2009-07-09 07:12:54 51°16.494 2°57.36 4.3 20 14.7 101390 93
2009-07-09 07:12:59 51°16.502 2°57.377 4.4 21 14.7 101390 93
2009-07-09 07:13:04 51°16.509 2°57.396 4.3 17 14.7 101390 94
2009-07-09 07:13:10 51°16.519 2°57.417 5.2 13 14.7 101390 94
2009-07-09 07:13:14 51°16.525 2°57.431 4.4 11 14.6 101390 95
2009-07-09 07:13:20 51°16.534 2°57.452 2.6 20 14.6 101390 95
2009-07-09 07:13:24 51°16.541 2°57.466 4.4 16 14.6 101380 91
2009-07-09 07:13:30 51°16.55 2°57.488 4.5 19 14.6 101380 91
2009-07-09 07:13:34 51°16.557 2°57.502 5.7 12 14.6 101390 92
2009-07-09 07:13:39 51°16.564 2°57.521 4.1 16 14.6 101390 92
2009-07-09 07:13:45 51°16.573 2°57.542 4.9 18 14.6 101390 91
2009-07-09 07:13:50 51°16.581 2°57.56 4.1 17 14.6 101390 91
2009-07-09 07:13:54 51°16.587 2°57.574 5.5 21 14.6 101390 91
2009-07-09 07:13:59 51°16.594 2°57.591 4.3 16 14.6 101390 91
2009-07-09 07:14:04 51°16.602 2°57.61 5.4 16 14.6 101380 92
2009-07-09 07:14:10 51°16.611 2°57.63 5.9 18 14.6 101380 92
2009-07-09 07:14:14 51°16.617 2°57.645 4.4 21 14.6 101380 89
2009-07-09 07:14:19 51°16.625 2°57.663 4.7 19 14.6 101380 89
2009-07-09 07:14:25 51°16.634 2°57.684 4.4 15 14.6 101390 87
2009-07-09 07:14:30 51°16.641 2°57.702 5.2 20 14.6 101390 87
2009-07-09 07:14:34 51°16.648 2°57.716 4 23 14.6 101380 78
2009-07-09 07:14:38 51°16.654 2°57.73 4.7 22 14.6 101380 78
2009-07-09 07:14:44 51°16.663 2°57.752 4.9 13 14.6 101390 87
2009-07-09 07:14:50 51°16.672 2°57.773 4.5 20 14.6 101390 87
2009-07-09 07:14:54 51°16.678 2°57.788 3.8 22 14.6 101390 93
2009-07-09 07:15:00 51°16.687 2°57.809 3.6 20 14.6 101390 93
2009-07-09 07:15:04 51°16.693 2°57.823 3.4 20 14.6 101380 90
2009-07-09 07:15:09 51°16.7 2°57.841 4.3 9 14.6 101380 90
2009-07-09 07:15:15 51°16.71 2°57.862 4.1 12 14.6 101390 87
2009-07-09 07:15:19 51°16.715 2°57.877 4.8 13 14.6 101390 87
2009-07-09 07:15:25 51°16.723 2°57.899 4.2 14 14.6 101390 92
2009-07-09 07:15:30 51°16.73 2°57.917 4.5 11 14.6 101390 92
2009-07-09 07:15:34 51°16.736 2°57.932 5.3 16 14.6 101390 86
2009-07-09 07:15:39 51°16.741 2°57.951 4.8 16 14.6 101390 86
2009-07-09 07:15:45 51°16.75 2°57.973 5.4 15 14.6 101390 91
2009-07-09 07:15:50 51°16.756 2°57.992 4.8 14 14.6 101390 91
2009-07-09 07:15:54 51°16.761 2°58.007 5.2 16 14.6 101390 90
2009-07-09 07:15:59 51°16.767 2°58.026 4.7 17 14.6 101390 90
2009-07-09 07:16:05 51°16.776 2°58.048 4.5 18 14.6 101380 91
2009-07-09 07:16:10 51°16.781 2°58.068 4.1 10 14.6 101380 91
2009-07-09 07:16:14 51°16.787 2°58.082 5.2 13 14.6 101380 91
2009-07-09 07:16:19 51°16.793 2°58.101 4.6 15 14.6 101380 91
2009-07-09 07:16:24 51°16.799 2°58.121 6 17 14.6 101390 90
2009-07-09 07:16:30 51°16.807 2°58.142 6.6 16 14.6 101390 90
2009-07-09 07:16:34 51°16.812 2°58.158 5.1 17 14.6 101380 92
2009-07-09 07:16:39 51°16.818 2°58.176 4.6 19 14.6 101380 92
2009-07-09 07:16:44 51°16.824 2°58.195 5.4 18 14.6 101380 91
2009-07-09 07:16:50 51°16.833 2°58.216 5.4 14 14.6 101380 91
2009-07-09 07:16:54 51°16.836 2°58.233 6.2 16 14.5 101390 91
2009-07-09 07:16:58 51°16.842 2°58.247 6.7 20 14.5 101390 91
2009-07-09 07:17:04 51°16.849 2°58.271 5.6 19 14.5 101380 90
2009-07-09 07:17:10 51°16.857 2°58.293 5.1 22 14.5 101380 90
2009-07-09 07:17:15 51°16.862 2°58.312 5.5 23 14.5 101390 92
2009-07-09 07:17:19 51°16.867 2°58.327 5.2 15 14.5 101390 92
2009-07-09 07:17:24 51°16.873 2°58.347 4.8 17 14.5 101390 92
2009-07-09 07:17:30 51°16.881 2°58.37 5.3 20 14.5 101390 92
2009-07-09 07:17:35 51°16.886 2°58.389 5 19 14.5 101390 91
2009-07-09 07:17:39 51°16.891 2°58.405 4.7 12 14.5 101390 91
2009-07-09 07:17:44 51°16.897 2°58.424 4.9 17 14.5 101390 91
2009-07-09 07:17:50 51°16.905 2°58.447 4.8 13 14.5 101390 91
2009-07-09 07:17:54 51°16.91 2°58.462 4.9 10 14.6 101390 91
2009-07-09 07:18:00 51°16.917 2°58.485 4.2 13 14.6 101390 91
2009-07-09 07:18:04 51°16.923 2°58.501 4.2 8 14.6 101390 91
2009-07-09 07:18:10 51°16.93 2°58.523 4.3 16 14.6 101390 91
2009-07-09 07:18:14 51°16.935 2°58.539 4.9 15 14.6 101380 91
2009-07-09 07:18:20 51°16.944 2°58.562 5.6 18 14.6 101380 91
2009-07-09 07:18:25 51°16.949 2°58.581 5.8 18 14.6 101390 89
2009-07-09 07:18:30 51°16.956 2°58.6 5.7 20 14.6 101390 89
2009-07-09 07:18:34 51°16.96 2°58.615 5.2 20 14.6 101380 91
2009-07-09 07:18:39 51°16.967 2°58.635 4.8 16 14.6 101380 91
2009-07-09 07:18:45 51°16.975 2°58.657 5.2 16 14.6 101380 91
2009-07-09 07:18:50 51°16.981 2°58.677 5.2 17 14.6 101380 91
2009-07-09 07:18:54 51°16.986 2°58.692 4.4 19 14.6 101380 91
2009-07-09 07:18:59 51°16.992 2°58.712 5.2 17 14.6 101380 91
2009-07-09 07:19:04 51°16.999 2°58.73 4.6 17 14.7 101380 91
2009-07-09 07:19:10 51°17.006 2°58.754 5.4 18 14.7 101380 91
2009-07-09 07:19:14 51°17.011 2°58.769 4.4 12 14.7 101390 91
2009-07-09 07:19:19 51°17.017 2°58.788 4.8 12 14.7 101390 91
2009-07-09 07:19:24 51°17.024 2°58.807 4.3 12 14.7 101390 89
2009-07-09 07:19:30 51°17.031 2°58.83 5.2 9 14.7 101390 89
2009-07-09 07:19:34 51°17.036 2°58.845 4.6 9 14.7 101390 92
2009-07-09 07:19:40 51°17.044 2°58.868 5.8 19 14.7 101390 92
2009-07-09 07:19:44 51°17.049 2°58.883 4.4 20 14.7 101390 92
2009-07-09 07:19:50 51°17.057 2°58.905 4.5 17 14.7 101390 92
2009-07-09 07:19:55 51°17.064 2°58.923 3.7 14 14.7 101400 93
2009-07-09 07:19:59 51°17.069 2°58.939 4.7 13 14.7 101400 93
2009-07-09 07:20:05 51°17.077 2°58.961 4 9 14.7 101390 91
2009-07-09 07:20:10 51°17.083 2°58.98 4 16 14.7 101390 91
2009-07-09 07:20:14 51°17.089 2°58.995 3.9 16 14.7 101390 89
2009-07-09 07:20:19 51°17.095 2°59.014 4 20 14.7 101390 89
2009-07-09 07:20:25 51°17.103 2°59.036 4.2 23 14.7 101390 90
2009-07-09 07:20:30 51°17.11 2°59.055 4 21 14.7 101390 90
2009-07-09 07:20:34 51°17.116 2°59.07 4.2 14 14.7 101390 92
2009-07-09 07:20:40 51°17.123 2°59.092 4.3 21 14.7 101390 92
2009-07-09 07:20:45 51°17.13 2°59.111 3.9 21 14.7 101380 91
2009-07-09 07:20:50 51°17.136 2°59.13 3.9 22 14.7 101380 91
2009-07-09 07:20:54 51°17.142 2°59.145 3.6 23 14.7 101380 90
2009-07-09 07:20:59 51°17.149 2°59.163 4.8 16 14.7 101380 90
2009-07-09 07:21:05 51°17.156 2°59.186 4.2 20 14.7 101390 89
2009-07-09 07:21:10 51°17.163 2°59.205 4.5 21 14.7 101390 89
2009-07-09 07:21:15 51°17.169 2°59.224 4.5 19 14.6 101390 90
2009-07-09 07:21:19 51°17.175 2°59.238 4.4 10 14.6 101390 90
2009-07-09 07:21:24 51°17.181 2°59.258 5.5 8 14.7 101400 90
2009-07-09 07:21:30 51°17.189 2°59.28 5.6 8 14.7 101400 90
2009-07-09 07:21:34 51°17.194 2°59.295 4.3 8 14.7 101390 91
2009-07-09 07:21:39 51°17.201 2°59.314 5.2 15 14.7 101390 91
2009-07-09 07:21:44 51°17.206 2°59.334 5.5 9 14.7 101390 91
2009-07-09 07:21:50 51°17.215 2°59.356 5.9 14 14.7 101390 91
2009-07-09 07:21:54 51°17.218 2°59.372 6 16 14.7 101390 89
2009-07-09 07:22:00 51°17.227 2°59.393 5.8 16 14.7 101390 89
2009-07-09 07:22:04 51°17.231 2°59.41 5.5 16 14.7 101390 90
2009-07-09 07:22:10 51°17.239 2°59.432 4.6 17 14.7 101390 90
2009-07-09 07:22:15 51°17.244 2°59.452 5.2 14 14.7 101390 91
2009-07-09 07:22:19 51°17.25 2°59.467 4.1 16 14.7 101390 91
2009-07-09 07:22:25 51°17.257 2°59.49 4 14 14.7 101390 90
2009-07-09 07:22:30 51°17.264 2°59.51 5.3 13 14.7 101390 90
2009-07-09 07:22:34 51°17.268 2°59.525 5.7 15 14.7 101390 91
2009-07-09 07:22:39 51°17.274 2°59.544 4.8 16 14.7 101390 91
2009-07-09 07:22:44 51°17.28 2°59.564 4.3 18 14.6 101390 91
2009-07-09 07:22:50 51°17.288 2°59.587 4.7 12 14.6 101390 91
2009-07-09 07:22:54 51°17.293 2°59.602 3.8 15 14.7 101390 91
2009-07-09 07:22:59 51°17.299 2°59.622 3.6 15 14.7 101390 91
2009-07-09 07:23:05 51°17.307 2°59.644 4 15 14.7 101390 90
2009-07-09 07:23:10 51°17.313 2°59.664 4.1 15 14.7 101390 90
2009-07-09 07:23:14 51°17.318 2°59.679 5.2 16 14.6 101390 91
2009-07-09 07:23:18 51°17.323 2°59.694 4 18 14.6 101390 91
2009-07-09 07:23:25 51°17.332 2°59.721 4.4 19 14.6 101390 90
2009-07-09 07:23:30 51°17.338 2°59.74 4.4 17 14.6 101390 90
2009-07-09 07:23:35 51°17.345 2°59.759 4.1 14 14.6 101390 91
2009-07-09 07:23:39 51°17.349 2°59.774 3.9 14 14.6 101390 91
2009-07-09 07:23:45 51°17.357 2°59.797 5.1 15 14.6 101390 91
2009-07-09 07:23:50 51°17.364 2°59.816 4.7 16 14.6 101390 91
2009-07-09 07:23:54 51°17.369 2°59.831 4.4 13 14.7 101390 91
2009-07-09 07:23:59 51°17.374 2°59.851 4.2 21 14.7 101390 91
2009-07-09 07:24:05 51°17.382 2°59.873 5 18 14.7 101380 91
2009-07-09 07:24:10 51°17.388 2°59.892 4 21 14.7 101380 91
2009-07-09 07:24:15 51°17.395 2°59.91 4.3 21 14.7 101390 92
2009-07-09 07:24:19 51°17.4 2°59.926 4.4 17 14.7 101390 92
2009-07-09 07:24:25 51°17.408 2°59.949 5 11 14.7 101380 92
2009-07-09 07:24:30 51°17.414 2°59.968 5.8 18 14.7 101380 92
2009-07-09 07:24:34 51°17.419 2°59.983 4.4 18 14.6 101390 91
2009-07-09 07:24:39 51°17.425 3°0.002 4.8 16 14.6 101390 91
2009-07-09 07:24:44 51°17.431 3°0.021 5 13 14.7 101400 92
2009-07-09 07:24:50 51°17.439 3°0.045 4.9 13 14.7 101400 92
2009-07-09 07:24:54 51°17.443 3°0.06 5.5 17 14.7 101400 91
2009-07-09 07:25:00 51°17.451 3°0.083 5.8 17 14.7 101400 91
2009-07-09 07:25:04 51°17.455 3°0.099 6.1 18 14.7 101390 92
2009-07-09 07:25:10 51°17.463 3°0.122 4.6 20 14.7 101390 92
2009-07-09 07:25:14 51°17.468 3°0.137 4.9 17 14.7 101390 90
2009-07-09 07:25:20 51°17.475 3°0.16 4.2 18 14.7 101390 90
2009-07-09 07:25:25 51°17.481 3°0.179 4.5 22 14.7 101390 90
2009-07-09 07:25:30 51°17.488 3°0.198 4.2 17 14.7 101390 90
2009-07-09 07:25:34 51°17.493 3°0.213 4.9 14 14.7 101390 90
2009-07-09 07:25:39 51°17.499 3°0.232 5.6 10 14.7 101390 90
2009-07-09 07:25:44 51°17.505 3°0.252 5.6 13 14.7 101390 91
2009-07-09 07:25:50 51°17.512 3°0.275 4.8 13 14.7 101390 91
2009-07-09 07:25:54 51°17.517 3°0.29 4.8 16 14.7 101390 91
2009-07-09 07:25:58 51°17.522 3°0.306 4.7 14 14.7 101390 91
2009-07-09 07:26:04 51°17.53 3°0.328 5.5 14 14.7 101400 91
2009-07-09 07:26:10 51°17.537 3°0.351 4.9 10 14.7 101400 91
2009-07-09 07:26:15 51°17.543 3°0.37 5.1 16 14.7 101400 90
2009-07-09 07:26:19 51°17.548 3°0.386 4.4 12 14.7 101400 90
2009-07-09 07:26:24 51°17.555 3°0.403 5 14 14.7 101390 90
2009-07-09 07:26:30 51°17.561 3°0.427 4.6 13 14.7 101390 90
2009-07-09 07:26:34 51°17.568 3°0.441 4.5 16 14.7 101380 91
2009-07-09 07:26:39 51°17.573 3°0.46 5.3 16 14.7 101380 91
2009-07-09 07:26:44 51°17.579 3°0.479 5.3 17 14.7 101390 91
2009-07-09 07:26:50 51°17.587 3°0.502 4.9 18 14.7 101390 91
2009-07-09 07:26:54 51°17.592 3°0.518 4.2 17 14.7 101390 92
2009-07-09 07:27:00 51°17.599 3°0.54 3.7 18 14.7 101390 92
2009-07-09 07:27:04 51°17.605 3°0.555 3.8 15 14.7 101380 90
2009-07-09 07:27:10 51°17.613 3°0.577 3.4 20 14.7 101380 90
2009-07-09 07:27:14 51°17.617 3°0.593 3.8 17 14.6 101390 90
2009-07-09 07:27:20 51°17.626 3°0.614 5.6 20 14.6 101390 90
2009-07-09 07:27:25 51°17.631 3°0.634 5.8 21 14.6 101390 90
2009-07-09 07:27:30 51°17.639 3°0.652 5.7 19 14.6 101390 90
2009-07-09 07:27:34 51°17.644 3°0.667 5.3 23 14.6 101390 91
2009-07-09 07:27:39 51°17.65 3°0.686 5.4 19 14.6 101390 91
2009-07-09 07:27:45 51°17.658 3°0.708 4.8 23 14.6 101390 90
2009-07-09 07:27:50 51°17.664 3°0.728 4.4 23 14.6 101390 90
2009-07-09 07:27:54 51°17.669 3°0.743 4.3 19 14.7 101390 91
2009-07-09 07:27:59 51°17.676 3°0.762 3.6 21 14.7 101390 91
2009-07-09 07:28:04 51°17.682 3°0.781 3.8 21 14.7 101390 91
2009-07-09 07:28:10 51°17.69 3°0.804 4.4 20 14.7 101390 91
2009-07-09 07:28:14 51°17.695 3°0.819 4.5 20 14.6 101390 90
2009-07-09 07:28:19 51°17.7 3°0.839 3.5 20 14.6 101390 90
2009-07-09 07:28:24 51°17.708 3°0.858 4.4 19 14.6 101390 89
2009-07-09 07:28:30 51°17.714 3°0.881 3.9 14 14.6 101390 89
2009-07-09 07:28:34 51°17.719 3°0.897 4.7 11 14.6 101390 88
2009-07-09 07:28:40 51°17.727 3°0.92 5.1 18 14.6 101390 88
2009-07-09 07:28:44 51°17.731 3°0.936 5.8 12 14.6 101390 90
2009-07-09 07:28:50 51°17.739 3°0.958 5.7 16 14.6 101390 90
2009-07-09 07:28:55 51°17.744 3°0.978 5.4 20 14.6 101400 91
2009-07-09 07:28:59 51°17.75 3°0.994 4.7 15 14.6 101400 91
2009-07-09 07:29:05 51°17.757 3°1.017 5.5 20 14.7 101390 90
2009-07-09 07:29:10 51°17.763 3°1.036 4.7 17 14.7 101390 90
2009-07-09 07:29:14 51°17.768 3°1.052 4.6 16 14.7 101380 91
2009-07-09 07:29:19 51°17.774 3°1.071 4.4 11 14.7 101380 91
2009-07-09 07:29:24 51°17.779 3°1.09 5.1 14 14.7 101380 91
2009-07-09 07:29:30 51°17.787 3°1.113 4.1 17 14.7 101380 91
2009-07-09 07:29:34 51°17.791 3°1.129 4.8 16 14.7 101380 92
2009-07-09 07:29:40 51°17.799 3°1.152 6.9 10 14.7 101380 92
2009-07-09 07:29:45 51°17.804 3°1.171 6.9 12 14.7 101390 91
2009-07-09 07:29:50 51°17.81 3°1.191 6 15 14.7 101390 91
2009-07-09 07:29:54 51°17.815 3°1.206 5.3 11 14.7 101390 91
2009-07-09 07:29:58 51°17.82 3°1.221 4.8 21 14.7 101390 91
2009-07-09 07:30:05 51°17.827 3°1.248 5.1 18 14.7 101380 91
2009-07-09 07:30:10 51°17.833 3°1.268 4.2 19 14.7 101380 91
2009-07-09 07:30:14 51°17.838 3°1.283 3.6 20 14.7 101390 91
2009-07-09 07:30:19 51°17.843 3°1.303 3.4 10 14.7 101390 91
2009-07-09 07:30:25 51°17.851 3°1.325 5.8 11 14.7 101380 90
2009-07-09 07:30:30 51°17.856 3°1.344 4.7 11 14.7 101380 90
2009-07-09 07:30:34 51°17.861 3°1.359 4.8 13 14.7 101390 87
2009-07-09 07:30:39 51°17.867 3°1.378 3.9 16 14.7 101390 87
2009-07-09 07:30:44 51°17.872 3°1.397 3.9 16 14.7 101380 91
2009-07-09 07:30:50 51°17.879 3°1.419 3.7 14 14.7 101380 91
2009-07-09 07:30:54 51°17.884 3°1.434 4.2 16 14.7 101390 91
2009-07-09 07:31:00 51°17.891 3°1.456 4.4 18 14.7 101390 91
2009-07-09 07:31:04 51°17.896 3°1.471 5.4 19 14.6 101390 91
2009-07-09 07:31:10 51°17.903 3°1.493 4.1 21 14.6 101390 91
2009-07-09 07:31:15 51°17.909 3°1.512 4.4 21 14.7 101390 90
2009-07-09 07:31:20 51°17.915 3°1.53 4.2 18 14.7 101390 90
2009-07-09 07:31:25 51°17.921 3°1.548 4.3 9 14.7 101380 90
2009-07-09 07:31:30 51°17.927 3°1.567 4.5 20 14.7 101380 90
2009-07-09 07:31:35 51°17.934 3°1.585 3.5 21 14.7 101390 91
2009-07-09 07:31:39 51°17.938 3°1.601 3.6 18 14.7 101390 91
2009-07-09 07:31:45 51°17.945 3°1.623 3 18 14.7 101390 90
2009-07-09 07:31:50 51°17.95 3°1.643 3.8 18 14.7 101390 90
2009-07-09 07:31:54 51°17.956 3°1.658 3.5 4 14.7 101390 90
2009-07-09 07:32:00 51°17.962 3°1.68 5.2 15 14.7 101390 90
2009-07-09 07:32:04 51°17.967 3°1.695 5.8 12 14.6 101400 91
2009-07-09 07:32:10 51°17.975 3°1.717 4.5 11 14.6 101400 91
2009-07-09 07:32:14 51°17.98 3°1.732 5.4 18 14.7 101380 90
2009-07-09 07:32:19 51°17.985 3°1.751 4.5 10 14.7 101380 90
2009-07-09 07:32:25 51°17.993 3°1.773 5.2 11 14.7 101380 92
2009-07-09 07:32:30 51°17.998 3°1.792 4.3 17 14.7 101380 92
2009-07-09 07:32:34 51°18.004 3°1.806 4.6 17 14.7 101390 92
2009-07-09 07:32:39 51°18.01 3°1.825 4.9 15 14.7 101390 92
2009-07-09 07:32:44 51°18.015 3°1.844 4.1 18 14.7 101400 92
2009-07-09 07:32:50 51°18.023 3°1.866 4.4 13 14.7 101400 92
2009-07-09 07:32:54 51°18.027 3°1.881 5 12 14.7 101390 92
2009-07-09 07:32:59 51°18.034 3°1.9 4 15 14.7 101390 92
2009-07-09 07:33:04 51°18.04 3°1.918 4.7 17 14.7 101390 92
2009-07-09 07:33:10 51°18.047 3°1.941 4.3 8 14.7 101390 92
2009-07-09 07:33:14 51°18.052 3°1.956 5.2 14 14.7 101390 91
2009-07-09 07:33:20 51°18.058 3°1.978 4.6 15 14.7 101390 91
2009-07-09 07:33:24 51°18.064 3°1.993 5.2 18 14.7 101380 91
2009-07-09 07:33:30 51°18.07 3°2.016 5.4 17 14.7 101380 91
2009-07-09 07:33:35 51°18.075 3°2.035 6.1 17 14.7 101390 92
2009-07-09 07:33:39 51°18.08 3°2.05 4.4 20 14.7 101390 92
2009-07-09 07:33:45 51°18.087 3°2.073 4.4 21 14.8 101390 91
2009-07-09 07:33:50 51°18.093 3°2.092 4.5 18 14.8 101390 91
2009-07-09 07:33:54 51°18.098 3°2.107 5.4 17 14.7 101390 91
2009-07-09 07:34:00 51°18.104 3°2.13 4.3 18 14.7 101390 91
2009-07-09 07:34:04 51°18.11 3°2.145 4.7 18 14.7 101390 91
2009-07-09 07:34:10 51°18.117 3°2.167 3.6 19 14.7 101390 91
2009-07-09 07:34:14 51°18.121 3°2.183 4.9 15 14.7 101390 91
2009-07-09 07:34:20 51°18.128 3°2.206 4.4 22 14.7 101390 91
2009-07-09 07:34:25 51°18.134 3°2.225 3.8 23 14.7 101390 91
2009-07-09 07:34:30 51°18.139 3°2.244 4.1 12 14.7 101390 91
2009-07-09 07:34:34 51°18.144 3°2.259 4.5 13 14.7 101380 91
2009-07-09 07:34:39 51°18.15 3°2.279 4.4 13 14.7 101380 91
2009-07-09 07:34:45 51°18.157 3°2.302 4.6 8 14.8 101390 91
2009-07-09 07:34:50 51°18.162 3°2.321 5.3 13 14.8 101390 91
2009-07-09 07:34:54 51°18.167 3°2.336 3.9 11 14.8 101390 93
2009-07-09 07:34:59 51°18.173 3°2.355 4.9 15 14.8 101390 93
2009-07-09 07:35:04 51°18.178 3°2.374 4.7 11 14.9 101390 92
2009-07-09 07:35:10 51°18.185 3°2.397 4.3 7 14.9 101390 92
2009-07-09 07:35:14 51°18.19 3°2.412 3.4 6 14.9 101390 92
2009-07-09 07:35:19 51°18.196 3°2.431 4.6 16 14.9 101390 92
2009-07-09 07:35:24 51°18.202 3°2.449 3.8 15 14.9 101390 92
2009-07-09 07:35:30 51°18.21 3°2.472 5.6 16 14.9 101390 92
2009-07-09 07:35:34 51°18.214 3°2.488 5.2 18 14.9 101390 90
2009-07-09 07:35:40 51°18.221 3°2.51 4.1 20 14.9 101390 90
2009-07-09 07:35:44 51°18.225 3°2.526 5.1 17 14.9 101380 87
2009-07-09 07:35:50 51°18.233 3°2.548 5.7 20 14.9 101380 87
2009-07-09 07:35:55 51°18.238 3°2.567 4.9 20 14.9 101380 90
2009-07-09 07:36:00 51°18.244 3°2.586 5 9 14.9 101380 90
2009-07-09 07:36:05 51°18.25 3°2.604 5.2 9 14.9 101390 89
2009-07-09 07:36:10 51°18.256 3°2.624 4.7 14 14.9 101390 89
2009-07-09 07:36:14 51°18.261 3°2.638 4.9 18 14.9 101390 90
2009-07-09 07:36:19 51°18.267 3°2.657 4.8 12 14.9 101390 90
2009-07-09 07:36:25 51°18.274 3°2.68 4.8 11 14.9 101390 91
2009-07-09 07:36:30 51°18.281 3°2.697 4.8 14 14.9 101390 91
2009-07-09 07:36:34 51°18.285 3°2.713 4.5 13 14.9 101400 92
2009-07-09 07:36:40 51°18.293 3°2.736 4.7 12 14.9 101400 92
2009-07-09 07:36:44 51°18.297 3°2.752 5.8 10 14.9 101380 90
2009-07-09 07:36:50 51°18.305 3°2.774 4.9 13 14.9 101380 90
2009-07-09 07:36:54 51°18.31 3°2.79 5.5 13 14.8 101390 90
2009-07-09 07:36:59 51°18.315 3°2.809 4.8 17 14.8 101390 90
2009-07-09 07:37:05 51°18.323 3°2.832 5.9 15 14.9 101390 91
2009-07-09 07:37:10 51°18.329 3°2.85 4.8 20 14.9 101390 91
2009-07-09 07:37:14 51°18.334 3°2.865 5 21 14.9 101390 91
2009-07-09 07:37:19 51°18.34 3°2.88 4.8 24 14.9 101390 91
2009-07-09 07:37:25 51°18.345 3°2.898 4.6 25 14.9 101380 89
2009-07-09 07:37:30 51°18.351 3°2.91 3.8 32 14.9 101380 89
2009-07-09 07:37:35 51°18.356 3°2.921 4 31 14.9 101390 84
2009-07-09 07:37:39 51°18.36 3°2.929 3.6 34 14.9 101390 84
2009-07-09 07:37:45 51°18.365 3°2.939 3.8 39 14.8 101390 90
2009-07-09 07:37:50 51°18.37 3°2.945 4.2 42 14.8 101390 90
2009-07-09 07:37:54 51°18.373 3°2.95 4.6 44 14.9 101390 90
2009-07-09 07:38:00 51°18.378 3°2.955 4.8 32 14.9 101390 90
2009-07-09 07:38:05 51°18.382 3°2.959 5.1 26 14.9 101390 91
2009-07-09 07:38:10 51°18.386 3°2.961 4.7 51 14.9 101390 91
2009-07-09 07:38:14 51°18.389 3°2.963 3.5 19 14.9 101390 90
2009-07-09 07:38:19 51°18.393 3°2.965 3.9 35 14.9 101390 90
2009-07-09 07:38:25 51°18.397 3°2.966 3.2 22 14.9 101390 90
2009-07-09 07:38:30 51°18.4 3°2.967 2.4 37 14.9 101390 90
2009-07-09 07:38:34 51°18.402 3°2.967 2.4 25 14.9 101390 90
2009-07-09 07:38:40 51°18.406 3°2.969 5.4 31 14.9 101390 90
2009-07-09 07:38:45 51°18.409 3°2.969 5.2 25 15 101390 90
2009-07-09 07:38:50 51°18.411 3°2.97 4.4 37 15 101390 90
2009-07-09 07:38:54 51°18.413 3°2.97 4.9 26 15.1 101390 91
2009-07-09 07:38:59 51°18.415 3°2.972 5.1 37 15.1 101390 91
2009-07-09 07:39:05 51°18.418 3°2.972 4.8 27 15.1 101390 92
2009-07-09 07:39:10 51°18.42 3°2.974 4.7 32 15.1 101390 92
2009-07-09 07:39:14 51°18.421 3°2.974 4.5 26 15 101390 89
2009-07-09 07:39:19 51°18.423 3°2.976 4.5 45 15 101390 89
2009-07-09 07:39:25 51°18.425 3°2.978 5 42 14.9 101380 90
2009-07-09 07:39:30 51°18.426 3°2.981 6 42 14.9 101380 90
2009-07-09 07:39:35 51°18.427 3°2.983 6.3 40 14.9 101390 89
2009-07-09 07:39:39 51°18.428 3°2.985 6.5 36 14.9 101390 89
2009-07-09 07:39:44 51°18.429 3°2.988 6.5 37 14.9 101390 90
2009-07-09 07:39:50 51°18.429 3°2.992 7.2 31 14.9 101390 90
2009-07-09 07:39:55 51°18.429 3°2.994 6.5 31 14.9 101380 90
2009-07-09 07:39:59 51°18.428 3°2.997 6.2 31 14.9 101380 90
2009-07-09 07:40:04 51°18.428 3°3 6.2 30 14.9 101380 90
2009-07-09 07:40:10 51°18.427 3°3.003 5.6 25 14.9 101380 90
2009-07-09 07:40:14 51°18.427 3°3.005 5.6 25 14.9 101380 89
2009-07-09 07:40:20 51°18.425 3°3.008 5.4 26 14.9 101380 89
2009-07-09 07:40:24 51°18.424 3°3.01 5.9 23 14.9 101380 90
2009-07-09 07:40:30 51°18.423 3°3.012 6.5 23 14.9 101380 90
2009-07-09 07:40:34 51°18.421 3°3.013 6.4 25 14.9 101380 89
2009-07-09 07:40:40 51°18.42 3°3.015 5.8 28 14.9 101380 89
2009-07-09 07:40:45 51°18.418 3°3.016 6.6 21 14.9 101380 91
2009-07-09 07:40:50 51°18.417 3°3.018 7.5 21 14.9 101380 91
2009-07-09 07:40:54 51°18.415 3°3.018 7.6 24 15 101380 91
2009-07-09 07:40:59 51°18.415 3°3.019 7.7 21 15 101380 91
2009-07-09 07:41:05 51°18.413 3°3.02 6.3 21 15 101390 91
2009-07-09 07:41:10 51°18.411 3°3.021 6.4 24 15 101390 91
2009-07-09 07:41:14 51°18.41 3°3.021 6.1 23 15 101390 91
2009-07-09 07:41:19 51°18.409 3°3.021 6.6 25 15 101390 91
2009-07-09 07:41:24 51°18.407 3°3.021 5.9 25 15 101390 91
2009-07-09 07:41:30 51°18.405 3°3.021 5.8 23 15 101390 91
2009-07-09 07:41:34 51°18.404 3°3.021 6.6 23 14.9 101380 91
2009-07-09 07:41:39 51°18.403 3°3.022 6.9 23 14.9 101380 91
2009-07-09 07:41:45 51°18.401 3°3.021 5.9 23 14.9 101390 90
2009-07-09 07:41:50 51°18.4 3°3.021 7.3 21 14.9 101390 90
2009-07-09 07:41:54 51°18.399 3°3.021 7.5 23 14.9 101380 89
2009-07-09 07:42:00 51°18.398 3°3.021 7.3 23 14.9 101380 89
2009-07-09 07:42:04 51°18.397 3°3.021 7.2 24 15 101390 90
2009-07-09 07:42:10 51°18.396 3°3.02 6.8 21 15 101390 90
2009-07-09 07:42:14 51°18.395 3°3.02 6.7 23 15 101390 91
2009-07-09 07:42:19 51°18.395 3°3.02 7.3 24 15 101390 91
2009-07-09 07:42:25 51°18.393 3°3.019 6.9 26 14.9 101380 88
2009-07-09 07:42:30 51°18.392 3°3.018 7.9 27 14.9 101380 88
2009-07-09 07:42:35 51°18.391 3°3.018 7.4 27 14.9 101390 88
2009-07-09 07:42:39 51°18.39 3°3.017 8.1 24 14.9 101390 88
2009-07-09 07:42:45 51°18.389 3°3.016 7.5 26 14.9 101390 89
2009-07-09 07:42:50 51°18.388 3°3.015 7.6 28 14.9 101390 89
2009-07-09 07:42:55 51°18.387 3°3.014 7.9 27 14.9 101390 90
2009-07-09 07:43:00 51°18.387 3°3.014 7.1 27 14.9 101390 90
2009-07-09 07:43:05 51°18.385 3°3.013 7 28 14.9 101390 90
2009-07-09 07:43:10 51°18.385 3°3.012 7.3 27 14.9 101390 90
2009-07-09 07:43:14 51°18.383 3°3.011 6.6 26 14.9 101380 89
2009-07-09 07:43:19 51°18.383 3°3.01 7.1 28 14.9 101380 89
2009-07-09 07:43:25 51°18.381 3°3.009 7 29 14.9 101390 87
2009-07-09 07:43:30 51°18.381 3°3.008 7.6 34 14.9 101390 87
2009-07-09 07:43:34 51°18.38 3°3.007 7 35 14.9 101390 87
2009-07-09 07:43:40 51°18.379 3°3.006 6.5 32 14.9 101390 87
2009-07-09 07:43:45 51°18.378 3°3.005 6.1 31 14.9 101390 90
2009-07-09 07:43:50 51°18.377 3°3.004 6.8 36 14.9 101390 90
2009-07-09 07:43:54 51°18.376 3°3.003 6.1 29 14.9 101390 89
2009-07-09 07:43:59 51°18.375 3°3.002 6.8 30 14.9 101390 89
2009-07-09 07:44:05 51°18.374 3°3 7.9 29 14.9 101390 91
2009-07-09 07:44:10 51°18.373 3°2.999 8 30 14.9 101390 91
2009-07-09 07:44:14 51°18.372 3°2.998 8 28 14.9 101390 92
2009-07-09 07:44:20 51°18.371 3°2.996 7.9 30 14.9 101390 92
2009-07-09 07:44:24 51°18.37 3°2.995 8 30 15 101390 92
2009-07-09 07:44:30 51°18.369 3°2.994 8.6 29 15 101390 92
2009-07-09 07:44:35 51°18.368 3°2.992 7.6 26 15 101390 92
2009-07-09 07:44:39 51°18.368 3°2.991 7.5 28 15 101390 92
2009-07-09 07:44:45 51°18.367 3°2.989 7.4 26 14.9 101380 91
2009-07-09 07:44:50 51°18.366 3°2.988 7.5 26 14.9 101380 91
2009-07-09 07:44:55 51°18.365 3°2.986 8.3 26 14.9 101390 91
2009-07-09 07:44:59 51°18.365 3°2.986 7.7 27 14.9 101390 91
2009-07-09 07:45:05 51°18.363 3°2.984 7.1 29 14.9 101390 90
2009-07-09 07:45:10 51°18.363 3°2.982 7.2 26 14.9 101390 90
2009-07-09 07:45:14 51°18.362 3°2.981 7.2 27 14.9 101380 91
2009-07-09 07:45:20 51°18.361 3°2.979 7.1 28 14.9 101380 91
2009-07-09 07:45:25 51°18.36 3°2.977 7.4 26 14.9 101390 89
2009-07-09 07:45:30 51°18.36 3°2.976 7 28 14.9 101390 89
2009-07-09 07:45:34 51°18.359 3°2.975 6.7 25 14.9 101390 90
2009-07-09 07:45:39 51°18.358 3°2.973 7.4 31 14.9 101390 90
2009-07-09 07:45:45 51°18.357 3°2.971 7.1 32 14.9 101390 90
2009-07-09 07:45:50 51°18.357 3°2.969 6.7 28 14.9 101390 90
2009-07-09 07:45:54 51°18.356 3°2.968 6.8 28 14.9 101390 91
2009-07-09 07:45:59 51°18.355 3°2.966 5.9 30 14.9 101390 91
2009-07-09 07:46:05 51°18.354 3°2.964 6.2 31 14.9 101390 90
2009-07-09 07:46:10 51°18.353 3°2.963 7.5 33 14.9 101390 90
2009-07-09 07:46:14 51°18.352 3°2.961 6.6 31 14.9 101390 87
2009-07-09 07:46:19 51°18.352 3°2.959 7.7 34 14.9 101390 87
2009-07-09 07:46:25 51°18.351 3°2.957 6.9 28 14.9 101390 89
2009-07-09 07:46:30 51°18.35 3°2.955 7.3 26 14.9 101390 89
2009-07-09 07:46:34 51°18.349 3°2.954 7.5 25 14.9 101390 88
2009-07-09 07:46:39 51°18.348 3°2.952 7.2 23 14.9 101390 88
2009-07-09 07:46:44 51°18.347 3°2.95 7.8 21 15 101390 89
2009-07-09 07:46:50 51°18.346 3°2.948 7.7 26 15 101390 89
2009-07-09 07:46:54 51°18.346 3°2.947 7.1 25 14.9 101380 90
2009-07-09 07:47:00 51°18.345 3°2.945 7 24 14.9 101380 90
2009-07-09 07:47:04 51°18.344 3°2.943 6.8 23 15 101390 91
2009-07-09 07:47:10 51°18.344 3°2.941 6.8 25 15 101390 91
2009-07-09 07:47:15 51°18.342 3°2.939 7 26 15 101390 90
2009-07-09 07:47:20 51°18.342 3°2.937 6.1 25 15 101390 90
2009-07-09 07:47:25 51°18.341 3°2.935 6.8 25 15 101380 90
2009-07-09 07:47:30 51°18.34 3°2.933 6.3 27 15 101380 90
2009-07-09 07:47:34 51°18.339 3°2.932 6.9 26 15 101380 90
2009-07-09 07:47:40 51°18.338 3°2.929 7.3 24 15 101380 90
2009-07-09 07:47:45 51°18.338 3°2.928 7 23 15 101390 90
2009-07-09 07:47:50 51°18.337 3°2.925 6.8 24 15 101390 90
2009-07-09 07:47:54 51°18.336 3°2.924 7.2 22 15 101380 88
2009-07-09 07:47:59 51°18.335 3°2.922 5.9 25 15 101380 88
2009-07-09 07:48:04 51°18.335 3°2.92 6.1 23 15 101390 89
2009-07-09 07:48:10 51°18.333 3°2.917 5.3 22 15 101390 89
2009-07-09 07:48:14 51°18.333 3°2.916 6.1 22 15 101390 90
2009-07-09 07:48:19 51°18.332 3°2.914 6 23 15 101390 90
2009-07-09 07:48:25 51°18.331 3°2.911 6.8 23 15 101390 90
2009-07-09 07:48:30 51°18.33 3°2.909 6.8 26 15 101390 90
2009-07-09 07:48:34 51°18.33 3°2.908 6.5 25 15 101390 90
2009-07-09 07:48:39 51°18.329 3°2.905 7.2 22 15 101390 90
2009-07-09 07:48:44 51°18.328 3°2.903 6.8 22 15.1 101390 91
2009-07-09 07:48:50 51°18.327 3°2.901 7 23 15.1 101390 91
2009-07-09 07:48:54 51°18.326 3°2.899 6.4 22 15 101390 90
2009-07-09 07:48:59 51°18.325 3°2.897 6.8 24 15 101390 90
2009-07-09 07:49:04 51°18.324 3°2.895 6.3 22 15.1 101380 90
2009-07-09 07:49:10 51°18.323 3°2.892 5.9 20 15.1 101380 90
2009-07-09 07:49:14 51°18.323 3°2.891 6 21 15.1 101380 90
2009-07-09 07:49:20 51°18.321 3°2.888 4.9 20 15.1 101380 90
2009-07-09 07:49:24 51°18.321 3°2.887 5.5 21 15.1 101390 90
2009-07-09 07:49:30 51°18.32 3°2.884 7.5 21 15.1 101390 90
2009-07-09 07:49:35 51°18.32 3°2.882 7 19 15.1 101390 90
2009-07-09 07:49:40 51°18.318 3°2.88 6.6 21 15.1 101390 90
2009-07-09 07:49:45 51°18.318 3°2.878 7.6 21 15.1 101390 90
2009-07-09 07:49:50 51°18.317 3°2.876 7 19 15.1 101390 90
2009-07-09 07:49:55 51°18.316 3°2.874 6.3 23 15.2 101390 91
2009-07-09 07:49:59 51°18.315 3°2.872 5.8 21 15.2 101390 91
2009-07-09 07:50:05 51°18.314 3°2.87 5.9 23 15.2 101380 91
2009-07-09 07:50:10 51°18.314 3°2.867 6.7 23 15.2 101380 91
2009-07-09 07:50:14 51°18.313 3°2.865 6.5 20 15.2 101390 89
2009-07-09 07:50:20 51°18.312 3°2.863 5.5 21 15.2 101390 89
2009-07-09 07:50:25 51°18.311 3°2.861 6.1 24 15.2 101390 92
2009-07-09 07:50:30 51°18.31 3°2.859 6.2 18 15.2 101390 92
2009-07-09 07:50:34 51°18.309 3°2.857 7 21 15.2 101390 92
2009-07-09 07:50:39 51°18.309 3°2.855 6.2 20 15.2 101390 92
2009-07-09 07:50:45 51°18.307 3°2.853 6.8 20 15.2 101390 91
2009-07-09 07:50:50 51°18.306 3°2.85 6.2 16 15.2 101390 91
2009-07-09 07:50:54 51°18.306 3°2.849 5.9 18 15.2 101380 91
2009-07-09 07:51:00 51°18.305 3°2.846 6.3 24 15.2 101380 91
2009-07-09 07:51:05 51°18.304 3°2.844 5.3 27 15.2 101390 91
2009-07-09 07:51:10 51°18.303 3°2.842 7.1 19 15.2 101390 91
2009-07-09 07:51:15 51°18.302 3°2.84 7.4 17 15.3 101390 91
2009-07-09 07:51:19 51°18.302 3°2.838 6.8 21 15.3 101390 91
2009-07-09 07:51:25 51°18.301 3°2.835 7.6 19 15.3 101390 89
2009-07-09 07:51:30 51°18.3 3°2.833 7.5 23 15.3 101390 89
2009-07-09 07:51:34 51°18.3 3°2.832 6.9 23 15.3 101380 91
2009-07-09 07:51:40 51°18.298 3°2.829 7.3 20 15.3 101380 91
2009-07-09 07:51:45 51°18.297 3°2.827 7.6 20 15.3 101380 91
2009-07-09 07:51:50 51°18.297 3°2.825 7.3 23 15.3 101380 91
2009-07-09 07:51:54 51°18.296 3°2.824 8 21 15.2 101390 90
2009-07-09 07:51:59 51°18.295 3°2.822 6.1 20 15.2 101390 90
2009-07-09 07:52:05 51°18.294 3°2.819 6.9 20 15.2 101380 91
2009-07-09 07:52:10 51°18.294 3°2.817 6.2 21 15.2 101380 91
2009-07-09 07:52:14 51°18.293 3°2.815 7.2 22 15.2 101390 90
2009-07-09 07:52:20 51°18.292 3°2.813 7.1 22 15.2 101390 90
2009-07-09 07:52:24 51°18.291 3°2.811 7.2 20 15.1 101390 89
2009-07-09 07:52:30 51°18.29 3°2.809 6.6 23 15.1 101390 89
2009-07-09 07:52:34 51°18.29 3°2.807 5.9 16 15.1 101380 88
2009-07-09 07:52:38 51°18.289 3°2.805 7.6 15 15.1 101380 88
2009-07-09 07:52:45 51°18.288 3°2.803 7.1 18 15.1 101390 89
2009-07-09 07:52:50 51°18.287 3°2.801 8.1 20 15.1 101390 89
2009-07-09 07:52:54 51°18.286 3°2.799 7.8 20 15.2 101390 86
2009-07-09 07:53:00 51°18.285 3°2.797 7.4 19 15.2 101390 86
2009-07-09 07:53:05 51°18.285 3°2.795 7 20 15.3 101380 90
2009-07-09 07:53:10 51°18.284 3°2.793 7.6 18 15.3 101380 90
2009-07-09 07:53:15 51°18.283 3°2.791 7.4 21 15.2 101390 88
2009-07-09 07:53:19 51°18.282 3°2.79 6.6 18 15.2 101390 88
2009-07-09 07:53:24 51°18.281 3°2.787 6.9 17 15.2 101390 86
2009-07-09 07:53:30 51°18.281 3°2.785 6.8 17 15.2 101390 86
2009-07-09 07:53:35 51°18.28 3°2.783 7.1 16 15.2 101390 89
2009-07-09 07:53:39 51°18.279 3°2.782 7.5 22 15.2 101390 89
2009-07-09 07:53:44 51°18.278 3°2.779 6.2 19 15.1 101390 90
2009-07-09 07:53:50 51°18.277 3°2.777 7 21 15.1 101390 90
2009-07-09 07:53:54 51°18.276 3°2.775 6.1 20 15.2 101390 88
2009-07-09 07:54:00 51°18.275 3°2.773 7.4 19 15.2 101390 88
2009-07-09 07:54:04 51°18.274 3°2.771 7.3 22 15.2 101390 90
2009-07-09 07:54:10 51°18.274 3°2.769 7.9 19 15.2 101390 90
2009-07-09 07:54:15 51°18.273 3°2.767 7.3 20 15.3 101390 91
2009-07-09 07:54:20 51°18.272 3°2.765 7.7 21 15.3 101390 91
2009-07-09 07:54:25 51°18.271 3°2.763 7 22 15.3 101390 90
2009-07-09 07:54:30 51°18.27 3°2.761 6.7 22 15.3 101390 90
2009-07-09 07:54:34 51°18.269 3°2.759 7.2 20 15.2 101390 89
2009-07-09 07:54:40 51°18.269 3°2.757 7.6 18 15.2 101390 89
2009-07-09 07:54:45 51°18.268 3°2.755 6.7 16 15.2 101390 89
2009-07-09 07:54:50 51°18.267 3°2.753 7.3 19 15.2 101390 89
2009-07-09 07:54:54 51°18.267 3°2.752 6.6 14 15.2 101390 86
2009-07-09 07:55:00 51°18.266 3°2.749 7.9 17 15.2 101390 86
2009-07-09 07:55:04 51°18.265 3°2.748 7.9 21 15.2 101390 89
2009-07-09 07:55:10 51°18.264 3°2.745 7.8 20 15.2 101390 89
2009-07-09 07:55:14 51°18.264 3°2.744 7.1 18 15.2 101390 87
2009-07-09 07:55:20 51°18.262 3°2.742 8 19 15.2 101390 87
2009-07-09 07:55:25 51°18.262 3°2.739 8.5 20 15.2 101390 88
2009-07-09 07:55:30 51°18.261 3°2.738 7.3 18 15.2 101390 88
2009-07-09 07:55:34 51°18.26 3°2.736 7.7 16 15.2 101380 88
2009-07-09 07:55:40 51°18.26 3°2.734 7.9 20 15.2 101380 88
2009-07-09 07:55:44 51°18.259 3°2.732 7.7 18 15.2 101380 88
2009-07-09 07:55:50 51°18.258 3°2.73 8 20 15.2 101380 88
2009-07-09 07:55:55 51°18.257 3°2.728 8.1 17 15.2 101390 88
2009-07-09 07:56:00 51°18.256 3°2.726 8.1 19 15.2 101390 88
2009-07-09 07:56:05 51°18.256 3°2.724 7.2 21 15.2 101390 87
2009-07-09 07:56:10 51°18.255 3°2.722 7.6 19 15.2 101390 87
2009-07-09 07:56:15 51°18.254 3°2.72 7.1 18 15.2 101390 87
2009-07-09 07:56:19 51°18.253 3°2.718 7 16 15.2 101390 87
2009-07-09 07:56:25 51°18.252 3°2.716 7.3 17 15.2 101380 88
2009-07-09 07:56:30 51°18.252 3°2.714 6.3 22 15.2 101380 88
2009-07-09 07:56:35 51°18.251 3°2.712 7.3 14 15.2 101390 88
2009-07-09 07:56:40 51°18.25 3°2.71 7.7 15 15.2 101390 88
2009-07-09 07:56:45 51°18.249 3°2.708 7 13 15.2 101390 89
2009-07-09 07:56:50 51°18.248 3°2.706 6.6 16 15.2 101390 89
2009-07-09 07:56:54 51°18.248 3°2.704 6.6 18 15.3 101390 88
2009-07-09 07:57:00 51°18.246 3°2.702 6.4 12 15.3 101390 88
2009-07-09 07:57:05 51°18.246 3°2.7 7.6 15 15.3 101390 90
2009-07-09 07:57:10 51°18.245 3°2.698 6.6 18 15.3 101390 90
2009-07-09 07:57:14 51°18.244 3°2.696 7.7 14 15.3 101390 87
2009-07-09 07:57:19 51°18.244 3°2.694 7.4 13 15.3 101390 87
2009-07-09 07:57:24 51°18.243 3°2.692 7.3 17 15.3 101390 87
2009-07-09 07:57:30 51°18.242 3°2.69 7.5 16 15.3 101390 87
2009-07-09 07:57:34 51°18.241 3°2.688 7.5 15 15.3 101390 88
2009-07-09 07:57:40 51°18.24 3°2.686 7.9 17 15.3 101390 88
2009-07-09 07:57:45 51°18.24 3°2.684 6.9 17 15.3 101390 88
2009-07-09 07:57:50 51°18.239 3°2.682 7 16 15.3 101390 88
2009-07-09 07:57:54 51°18.238 3°2.68 7.3 14 15.2 101380 87
2009-07-09 07:58:00 51°18.237 3°2.678 7.2 10 15.2 101380 87
2009-07-09 07:58:04 51°18.237 3°2.676 7.7 12 15.2 101380 88
2009-07-09 07:58:10 51°18.236 3°2.674 7.7 13 15.2 101380 88
2009-07-09 07:58:15 51°18.235 3°2.672 8.1 15 15.2 101380 89
2009-07-09 07:58:19 51°18.235 3°2.67 7.3 11 15.2 101380 89
2009-07-09 07:58:25 51°18.233 3°2.667 8.3 15 15.2 101390 89
2009-07-09 07:58:30 51°18.233 3°2.666 7.9 14 15.2 101390 89
2009-07-09 07:58:34 51°18.232 3°2.664 7.9 14 15.2 101380 89
2009-07-09 07:58:40 51°18.232 3°2.662 7.4 12 15.2 101380 89
2009-07-09 07:58:44 51°18.231 3°2.66 7.6 11 15.2 101390 88
2009-07-09 07:58:50 51°18.23 3°2.657 7.5 13 15.2 101390 88
2009-07-09 07:58:55 51°18.229 3°2.655 8 14 15.2 101390 88
2009-07-09 07:59:00 51°18.229 3°2.654 7.1 18 15.2 101390 88
2009-07-09 07:59:05 51°18.228 3°2.651 7.7 17 15.2 101400 87
2009-07-09 07:59:10 51°18.227 3°2.649 7.7 17 15.2 101400 87
2009-07-09 07:59:14 51°18.227 3°2.648 7.8 17 15.2 101390 88
2009-07-09 07:59:20 51°18.226 3°2.645 6.5 18 15.2 101390 88
2009-07-09 07:59:25 51°18.225 3°2.643 6.7 14 15.2 101390 88
2009-07-09 07:59:30 51°18.225 3°2.641 7 22 15.2 101390 88
2009-07-09 07:59:34 51°18.224 3°2.64 7.9 20 15.2 101390 88
2009-07-09 07:59:39 51°18.223 3°2.637 7.9 21 15.2 101390 88
2009-07-09 07:59:45 51°18.222 3°2.635 7.1 20 15.2 101390 87
2009-07-09 07:59:50 51°18.222 3°2.633 7 24 15.2 101390 87
2009-07-09 07:59:55 51°18.221 3°2.631 6.8 24 15.2 101390 88
2009-07-09 07:59:59 51°18.22 3°2.629 7 22 15.2 101390 88
2009-07-09 08:00:05 51°18.219 3°2.627 7 24 15.2 101390 89
2009-07-09 08:00:10 51°18.218 3°2.625 7 25 15.2 101390 89
2009-07-09 08:00:14 51°18.218 3°2.623 7.1 25 15.2 101380 84
2009-07-09 08:00:20 51°18.217 3°2.621 7.5 21 15.2 101380 84
2009-07-09 08:00:24 51°18.216 3°2.619 6.7 23 15.1 101390 88
2009-07-09 08:00:30 51°18.215 3°2.616 5.9 19 15.1 101390 88
2009-07-09 08:00:34 51°18.215 3°2.615 6.7 19 15.1 101400 84
2009-07-09 08:00:40 51°18.214 3°2.612 5.7 23 15.1 101400 84
2009-07-09 08:00:45 51°18.213 3°2.61 6.9 27 15.1 101390 84
2009-07-09 08:00:50 51°18.212 3°2.608 7.1 24 15.1 101390 84
2009-07-09 08:00:55 51°18.211 3°2.606 6.7 23 15.1 101390 84
2009-07-09 08:01:00 51°18.21 3°2.604 7.8 26 15.1 101390 84
2009-07-09 08:01:05 51°18.21 3°2.602 6.7 25 15.1 101390 88
2009-07-09 08:01:10 51°18.209 3°2.6 6.9 24 15.1 101390 88
2009-07-09 08:01:14 51°18.208 3°2.598 6.8 24 15.1 101390 86
2009-07-09 08:01:20 51°18.207 3°2.596 7.3 24 15.1 101390 86
2009-07-09 08:01:24 51°18.207 3°2.594 6.5 24 15.2 101390 88
2009-07-09 08:01:30 51°18.206 3°2.591 6.2 25 15.2 101390 88
2009-07-09 08:01:34 51°18.205 3°2.59 6.6 25 15.1 101390 89
2009-07-09 08:01:40 51°18.204 3°2.587 6.2 25 15.1 101390 89
2009-07-09 08:01:45 51°18.203 3°2.586 5.9 20 15.1 101400 89
2009-07-09 08:01:50 51°18.202 3°2.583 6.6 24 15.1 101400 89
2009-07-09 08:01:54 51°18.202 3°2.582 7.3 26 15.2 101390 88
2009-07-09 08:02:00 51°18.2 3°2.579 7.8 25 15.2 101390 88
2009-07-09 08:02:05 51°18.2 3°2.577 6.9 24 15.2 101390 90
2009-07-09 08:02:10 51°18.199 3°2.575 6.8 24 15.2 101390 90
2009-07-09 08:02:14 51°18.198 3°2.574 6.5 22 15.2 101390 90
2009-07-09 08:02:20 51°18.197 3°2.571 6.9 25 15.2 101390 90
2009-07-09 08:02:25 51°18.196 3°2.569 6.8 25 15.2 101390 89
2009-07-09 08:02:30 51°18.196 3°2.567 6.8 26 15.2 101390 89
2009-07-09 08:02:35 51°18.195 3°2.565 6.7 24 15.1 101390 88
2009-07-09 08:02:39 51°18.194 3°2.564 7.2 24 15.1 101390 88
2009-07-09 08:02:45 51°18.193 3°2.561 6.5 27 15.1 101390 87
2009-07-09 08:02:50 51°18.192 3°2.559 7.6 24 15.1 101390 87
2009-07-09 08:02:54 51°18.191 3°2.557 7 24 15.1 101390 88
2009-07-09 08:03:00 51°18.19 3°2.555 6.7 20 15.1 101390 88
2009-07-09 08:03:05 51°18.189 3°2.553 7.5 21 15.1 101400 88
2009-07-09 08:03:10 51°18.188 3°2.552 6.5 18 15.1 101400 88
2009-07-09 08:03:14 51°18.187 3°2.55 6.9 19 15.1 101390 88
2009-07-09 08:03:19 51°18.187 3°2.548 6.5 19 15.1 101390 88
2009-07-09 08:03:25 51°18.185 3°2.545 7.4 17 15.1 101390 87
2009-07-09 08:03:30 51°18.185 3°2.544 6.4 15 15.1 101390 87
2009-07-09 08:03:34 51°18.183 3°2.542 7 16 15.1 101390 86
2009-07-09 08:03:40 51°18.183 3°2.54 5.8 16 15.1 101390 86
2009-07-09 08:03:44 51°18.181 3°2.538 6.5 19 15.2 101390 88
2009-07-09 08:03:50 51°18.181 3°2.536 6.9 20 15.2 101390 88
2009-07-09 08:03:54 51°18.18 3°2.534 6.6 18 15.2 101390 88
2009-07-09 08:04:00 51°18.179 3°2.532 5.9 18 15.2 101390 88
2009-07-09 08:04:05 51°18.178 3°2.529 6 19 15.1 101390 88
2009-07-09 08:04:10 51°18.178 3°2.528 6.6 18 15.1 101390 88
2009-07-09 08:04:14 51°18.176 3°2.526 6.4 19 15.2 101400 88
2009-07-09 08:04:20 51°18.176 3°2.524 5.7 16 15.2 101400 88